| time (UTC) | temp F | wind direction | speed MPH | gust MPH | rain 1hr in | rain 24hr in | rain mn in | humidity % | barometer mb |
| 20260504233457 | 67 | 101 | 1.0 | 3.0 | 0.00 | 0.00 | 0.00 | 38 | 1005.9 |
| 20260504232954 | 68 | 101 | 1.0 | 3.0 | 0.00 | 0.00 | 0.00 | 38 | 1005.8 |
| 20260504232453 | 68 | 107 | 1.0 | 4.0 | 0.00 | 0.00 | 0.00 | 37 | 1005.9 |
| 20260504231924 | 68 | 167 | 2.0 | 4.0 | 0.00 | 0.00 | 0.00 | 37 | 1005.8 |
| 20260504231422 | 68 | 40 | 1.0 | 4.0 | 0.00 | 0.00 | 0.00 | 37 | 1005.7 |
| 20260504230854 | 69 | 342 | 1.0 | 4.0 | 0.00 | 0.00 | 0.00 | 37 | 1005.7 |
| 20260504230353 | 69 | 113 | 1.0 | 4.0 | 0.00 | 0.00 | 0.00 | 37 | 1005.6 |
| 20260504225823 | 69 | 192 | 1.0 | 8.0 | 0.00 | 0.00 | 0.00 | 36 | 1005.6 |
| 20260504225322 | 69 | 140 | 2.0 | 3.0 | 0.00 | 0.00 | 0.00 | 37 | 1005.5 |
| 20260504224803 | 69 | 341 | 2.0 | 7.0 | 0.00 | 0.00 | 0.00 | 36 | 1005.5 |
| 20260504224305 | 70 | 61 | 1.0 | 4.0 | 0.00 | 0.00 | 0.00 | 36 | 1005.5 |
| 20260504223735 | 70 | 105 | 1.0 | 3.0 | 0.00 | 0.00 | 0.00 | 36 | 1005.3 |
| 20260504223233 | 70 | 52 | 2.0 | 4.0 | 0.00 | 0.00 | 0.00 | 37 | 1005.3 |
| 20260504222728 | 70 | 123 | 2.0 | 4.0 | 0.00 | 0.00 | 0.00 | 36 | 1005.2 |
| 20260504222227 | 70 | 306 | 2.0 | 8.0 | 0.00 | 0.00 | 0.00 | 35 | 1005.1 |
| 20260504221700 | 70 | 284 | 2.0 | 8.0 | 0.00 | 0.00 | 0.00 | 36 | 1005.2 |
| 20260504221133 | 70 | 53 | 2.0 | 9.0 | 0.00 | 0.00 | 0.00 | 35 | 1005.2 |
| 20260504220609 | 70 | 204 | 2.0 | 9.0 | 0.00 | 0.00 | 0.00 | 35 | 1005.2 |
| 20260504220311 | 70 | 244 | 2.0 | 7.0 | 0.00 | 0.00 | 0.00 | 36 | 1005.1 |
| 20260504215808 | 70 | 134 | 2.0 | 7.0 | 0.00 | 0.00 | 0.00 | 35 | 1005.1 |
| 20260504215034 | 70 | 141 | 3.0 | 7.0 | 0.00 | 0.00 | 0.00 | 35 | 1005.2 |
| 20260504214533 | 71 | 222 | 2.0 | 8.0 | 0.00 | 0.00 | 0.00 | 34 | 1005.2 |
| 20260504214236 | 71 | 115 | 2.0 | 4.0 | 0.00 | 0.00 | 0.00 | 35 | 1005.1 |
| 20260504213502 | 71 | 126 | 2.0 | 8.0 | 0.00 | 0.00 | 0.00 | 34 | 1005.1 |
| 20260504212933 | 71 | 49 | 2.0 | 8.0 | 0.00 | 0.00 | 0.00 | 34 | 1005.1 |
| 20260504212432 | 71 | 19 | 3.0 | 9.0 | 0.00 | 0.00 | 0.00 | 34 | 1005.2 |
| 20260504211904 | 71 | 100 | 3.0 | 9.0 | 0.00 | 0.00 | 0.00 | 33 | 1005.1 |
| 20260504211401 | 71 | 229 | 3.0 | 12.0 | 0.00 | 0.00 | 0.00 | 32 | 1005.0 |
| 20260504210836 | 71 | 251 | 3.0 | 12.0 | 0.00 | 0.00 | 0.00 | 33 | 1005.1 |
| 20260504210542 | 72 | 282 | 3.0 | 9.0 | 0.00 | 0.00 | 0.00 | 32 | 1005.2 |
| 20260504205809 | 72 | 288 | 3.0 | 9.0 | 0.00 | 0.00 | 0.00 | 33 | 1005.2 |
| 20260504205311 | 72 | 161 | 2.0 | 9.0 | 0.00 | 0.00 | 0.00 | 34 | 1005.1 |
| 20260504204748 | 72 | 242 | 2.0 | 9.0 | 0.00 | 0.00 | 0.00 | 32 | 1005.1 |
| 20260504204248 | 72 | 182 | 3.0 | 9.0 | 0.00 | 0.00 | 0.00 | 31 | 1005.2 |
| 20260504203959 | 73 | 292 | 3.0 | 11.0 | 0.00 | 0.00 | 0.00 | 32 | 1005.4 |
| 20260504203833 | 72 | 140 | 3.0 | 11.0 | 0.00 | 0.00 | 0.00 | 31 | 1005.3 |
| 20260504202726 | 73 | 103 | 3.0 | 10.0 | 0.00 | 0.00 | 0.00 | 31 | 1005.2 |
| 20260504202200 | 72 | 223 | 2.0 | 8.0 | 0.00 | 0.00 | 0.00 | 31 | 1005.2 |
| 20260504202156 | 73 | 309 | 2.0 | 10.0 | 0.00 | 0.00 | 0.00 | 32 | 1005.2 |
| 20260504201159 | 72 | 113 | 3.0 | 9.0 | 0.00 | 0.00 | 0.00 | 31 | 1005.2 |
| 20260504200648 | 71 | 134 | 3.0 | 9.0 | 0.00 | 0.00 | 0.00 | 32 | 1005.1 |
| 20260504200147 | 71 | 222 | 3.0 | 8.0 | 0.00 | 0.00 | 0.00 | 33 | 1005.3 |
| 20260504195917 | 71 | 298 | 2.0 | 8.0 | 0.00 | 0.00 | 0.00 | 32 | 1005.3 |
| 20260504195421 | 71 | 112 | 2.0 | 8.0 | 0.00 | 0.00 | 0.00 | 33 | 1005.3 |
| 20260504194640 | 71 | 57 | 3.0 | 8.0 | 0.00 | 0.00 | 0.00 | 32 | 1005.3 |
| 20260504194138 | 71 | 276 | 3.0 | 8.0 | 0.00 | 0.00 | 0.00 | 31 | 1005.4 |
| 20260504193637 | 71 | 10 | 3.0 | 8.0 | 0.00 | 0.00 | 0.00 | 32 | 1005.4 |
| 20260504193138 | 71 | 59 | 3.0 | 8.0 | 0.00 | 0.00 | 0.00 | 30 | 1005.4 |
| 20260504192958 | 72 | 335 | 3.0 | 8.0 | 0.00 | 0.00 | 0.00 | 31 | 1005.3 |
| 20260504192851 | 73 | 296 | 3.0 | 8.0 | 0.00 | 0.00 | 0.00 | 30 | 1005.4 |
| 20260504191558 | 73 | 317 | 3.0 | 8.0 | 0.00 | 0.00 | 0.00 | 30 | 1005.4 |
| 20260504191035 | 73 | 241 | 2.0 | 8.0 | 0.00 | 0.00 | 0.00 | 32 | 1005.4 |
| 20260504190513 | 73 | 245 | 3.0 | 11.0 | 0.00 | 0.00 | 0.00 | 31 | 1005.5 |
| 20260504185946 | 73 | 283 | 3.0 | 11.0 | 0.00 | 0.00 | 0.00 | 30 | 1005.6 |
| 20260504185425 | 73 | 63 | 3.0 | 8.0 | 0.00 | 0.00 | 0.00 | 30 | 1005.5 |
| 20260504184900 | 72 | 205 | 3.0 | 10.0 | 0.00 | 0.00 | 0.00 | 30 | 1005.7 |
| 20260504184358 | 72 | 156 | 4.0 | 10.0 | 0.00 | 0.00 | 0.00 | 30 | 1005.6 |
| 20260504183858 | 72 | 325 | 4.0 | 10.0 | 0.00 | 0.00 | 0.00 | 31 | 1005.9 |
| 20260504183335 | 72 | 248 | 4.0 | 10.0 | 0.00 | 0.00 | 0.00 | 32 | 1005.8 |
| 20260504182806 | 73 | 252 | 3.0 | 7.0 | 0.00 | 0.00 | 0.00 | 29 | 1005.9 |
| 20260504182512 | 73 | 173 | 3.0 | 10.0 | 0.00 | 0.00 | 0.00 | 29 | 1006.1 |
| 20260504181715 | 72 | 278 | 3.0 | 10.0 | 0.00 | 0.00 | 0.00 | 32 | 1006.1 |
| 20260504181147 | 71 | 155 | 4.0 | 12.0 | 0.00 | 0.00 | 0.00 | 31 | 1005.9 |
| 20260504180621 | 71 | 252 | 4.0 | 12.0 | 0.00 | 0.00 | 0.00 | 33 | 1005.9 |
| 20260504180119 | 72 | 293 | 3.0 | 11.0 | 0.00 | 0.00 | 0.00 | 30 | 1005.9 |
| 20260504175609 | 71 | 136 | 3.0 | 11.0 | 0.00 | 0.00 | 0.00 | 31 | 1006.0 |
| 20260504175605 | 71 | 321 | 3.0 | 11.0 | 0.00 | 0.00 | 0.00 | 31 | 1005.9 |
| 20260504174555 | 71 | 148 | 3.0 | 10.0 | 0.00 | 0.00 | 0.00 | 31 | 1006.0 |
| 20260504174053 | 71 | 240 | 3.0 | 9.0 | 0.00 | 0.00 | 0.00 | 33 | 1005.9 |
| 20260504173757 | 71 | 210 | 4.0 | 11.0 | 0.00 | 0.00 | 0.00 | 32 | 1006.0 |
| 20260504172959 | 71 | 300 | 3.0 | 11.0 | 0.00 | 0.00 | 0.00 | 32 | 1006.1 |
| 20260504172431 | 71 | 122 | 3.0 | 11.0 | 0.00 | 0.00 | 0.00 | 31 | 1006.2 |
| 20260504172200 | 71 | 217 | 3.0 | 10.0 | 0.00 | 0.00 | 0.00 | 32 | 1006.2 |
| 20260504171405 | 70 | 244 | 4.0 | 10.0 | 0.00 | 0.00 | 0.00 | 32 | 1006.2 |
| 20260504170835 | 69 | 153 | 4.0 | 12.0 | 0.00 | 0.00 | 0.00 | 35 | 1006.3 |
| 20260504170335 | 69 | 39 | 4.0 | 12.0 | 0.00 | 0.00 | 0.00 | 33 | 1006.2 |
| 20260504160125 | 67 | 214 | 3.0 | 10.0 | 0.00 | 0.00 | 0.00 | 35 | 1006.6 |
| 20260504150937 | 66 | 128 | 3.0 | 9.0 | 0.00 | 0.00 | 0.00 | 39 | 1007.6 |
| 20260504150410 | 65 | 169 | 3.0 | 9.0 | 0.00 | 0.00 | 0.00 | 39 | 1007.6 |
| 20260504141142 | 62 | 201 | 2.0 | 7.0 | 0.00 | 0.00 | 0.00 | 44 | 1008.1 |
| 20260504140615 | 62 | 76 | 2.0 | 6.0 | 0.00 | 0.00 | 0.00 | 45 | 1008.3 |
| 20260504130352 | 57 | 345 | 2.0 | 7.0 | 0.00 | 0.00 | 0.00 | 50 | 1008.8 |
| 20260504120225 | 52 | 315 | 2.0 | 6.0 | 0.00 | 0.00 | 0.00 | 58 | 1009.2 |
| 20260504110409 | 44 | 225 | 1.0 | 2.0 | 0.00 | 0.00 | 0.00 | 75 | 1009.2 |
| 20260504110135 | 44 | 225 | 0.0 | 2.0 | 0.00 | 0.00 | 0.00 | 74 | 1009.2 |
| 20260504100428 | 43 | 167 | 1.0 | 4.0 | 0.00 | 0.00 | 0.00 | 75 | 1009.3 |
| 20260504081709 | 43 | 155 | 0.0 | 1.0 | 0.00 | 0.00 | 0.00 | 74 | 1009.3 |
| 20260504081142 | 43 | 155 | 0.0 | 1.0 | 0.00 | 0.00 | 0.00 | 73 | 1009.3 |
| 20260504080614 | 43 | 155 | 0.0 | 2.0 | 0.00 | 0.00 | 0.00 | 72 | 1009.1 |
| 20260504080112 | 43 | 155 | 0.0 | 2.0 | 0.00 | 0.00 | 0.00 | 73 | 1009.2 |
| 20260504070336 | 44 | 107 | 1.0 | 3.0 | 0.00 | 0.00 | 0.00 | 69 | 1009.1 |
| 20260504060124 | 43 | 78 | 0.0 | 1.0 | 0.00 | 0.00 | 0.00 | 71 | 1009.2 |
| 20260504050529 | 39 | 67 | 1.0 | 2.0 | 0.00 | 0.00 | 0.00 | 76 | 1009.1 |
| 20260504045735 | 39 | 67 | 1.0 | 2.0 | 0.00 | 0.00 | 0.00 | 76 | 1009.2 |
| 20260504044944 | 38 | 67 | 0.0 | 2.0 | 0.00 | 0.00 | 0.00 | 74 | 1009.2 |
| 20260504044441 | 38 | 67 | 0.0 | 2.0 | 0.00 | 0.00 | 0.00 | 74 | 1009.1 |
| 20260504044211 | 38 | 67 | 0.0 | 2.0 | 0.00 | 0.00 | 0.00 | 73 | 1009.2 |
| 20260504043420 | 39 | 67 | 0.0 | 2.0 | 0.00 | 0.00 | 0.00 | 75 | 1009.1 |
| 20260504042919 | 39 | 67 | 1.0 | 2.0 | 0.00 | 0.00 | 0.00 | 73 | 1009.1 |
| 20260504042420 | 39 | 67 | 0.0 | 2.0 | 0.00 | 0.00 | 0.00 | 73 | 1009.1 |
| 20260504042147 | 39 | 67 | 0.0 | 1.0 | 0.00 | 0.00 | 0.00 | 75 | 1009.0 |
| 20260504041351 | 39 | 67 | 0.0 | 1.0 | 0.00 | 0.00 | 0.00 | 75 | 1009.1 |
| 20260504040852 | 39 | 67 | 1.0 | 2.0 | 0.00 | 0.00 | 0.00 | 76 | 1009.0 |
| 20260504040555 | 39 | 67 | 1.0 | 2.0 | 0.00 | 0.00 | 0.00 | 76 | 1009.0 |
| 20260504040040 | 39 | 67 | 1.0 | 2.0 | 0.00 | 0.00 | 0.00 | 76 | 1009.0 |
| 20260504035532 | 39 | 67 | 1.0 | 2.0 | 0.00 | 0.00 | 0.00 | 77 | 1008.9 |
| 20260504034758 | 39 | 67 | 1.0 | 2.0 | 0.00 | 0.00 | 0.00 | 77 | 1008.8 |
| 20260504034254 | 38 | 67 | 1.0 | 2.0 | 0.00 | 0.00 | 0.00 | 77 | 1008.8 |
| 20260504033753 | 38 | 67 | 1.0 | 2.0 | 0.00 | 0.00 | 0.00 | 78 | 1008.8 |
| 20260504033249 | 38 | 67 | 0.0 | 1.0 | 0.00 | 0.00 | 0.00 | 79 | 1008.7 |
| 20260504032747 | 38 | 67 | 0.0 | 1.0 | 0.00 | 0.00 | 0.00 | 79 | 1008.7 |
| 20260504032515 | 39 | 67 | 1.0 | 2.0 | 0.00 | 0.00 | 0.00 | 79 | 1008.7 |
| 20260504031742 | 39 | 67 | 1.0 | 2.0 | 0.00 | 0.00 | 0.00 | 79 | 1008.7 |
| 20260504031216 | 39 | 67 | 1.0 | 2.0 | 0.00 | 0.00 | 0.00 | 79 | 1008.7 |
| 20260504030714 | 39 | 67 | 0.0 | 2.0 | 0.00 | 0.00 | 0.00 | 78 | 1008.8 |
| 20260504030149 | 39 | 67 | 1.0 | 2.0 | 0.00 | 0.00 | 0.00 | 78 | 1008.8 |
| 20260504025628 | 39 | 67 | 1.0 | 2.0 | 0.00 | 0.00 | 0.00 | 79 | 1008.7 |
| 20260504025131 | 39 | 67 | 0.0 | 1.0 | 0.00 | 0.00 | 0.00 | 77 | 1008.7 |
| 20260504024838 | 39 | 67 | 0.0 | 1.0 | 0.00 | 0.00 | 0.00 | 78 | 1008.6 |
| 20260504024107 | 39 | 67 | 0.0 | 1.0 | 0.00 | 0.00 | 0.00 | 79 | 1008.5 |
| 20260504023542 | 39 | 67 | 0.0 | 1.0 | 0.00 | 0.00 | 0.00 | 79 | 1008.5 |
| 20260504023043 | 39 | 67 | 0.0 | 1.0 | 0.00 | 0.00 | 0.00 | 79 | 1008.6 |
| 20260504022518 | 39 | 67 | 1.0 | 2.0 | 0.00 | 0.00 | 0.00 | 79 | 1008.6 |
| 20260504022017 | 40 | 67 | 1.0 | 2.0 | 0.00 | 0.00 | 0.00 | 77 | 1008.5 |
| 20260504021457 | 40 | 67 | 0.0 | 1.0 | 0.00 | 0.00 | 0.00 | 76 | 1008.5 |
| 20260504020938 | 40 | 67 | 0.0 | 1.0 | 0.00 | 0.00 | 0.00 | 76 | 1008.4 |
| 20260504020413 | 40 | 67 | 1.0 | 2.0 | 0.00 | 0.00 | 0.00 | 78 | 1008.4 |
| 20260504020110 | 40 | 67 | 1.0 | 2.0 | 0.00 | 0.00 | 0.00 | 77 | 1008.3 |
| 20260504015944 | 40 | 67 | 1.0 | 2.0 | 0.00 | 0.00 | 0.00 | 77 | 1008.3 |
| 20260504014819 | 40 | 67 | 1.0 | 2.0 | 0.00 | 0.00 | 0.00 | 77 | 1008.3 |
| 20260504014300 | 40 | 67 | 0.0 | 1.0 | 0.00 | 0.00 | 0.00 | 77 | 1008.3 |
| 20260504013736 | 41 | 67 | 0.0 | 1.0 | 0.00 | 0.00 | 0.00 | 77 | 1008.3 |
| 20260504013220 | 41 | 67 | 0.0 | 1.0 | 0.00 | 0.00 | 0.00 | 77 | 1008.2 |
| 20260504012720 | 41 | 67 | 1.0 | 1.0 | 0.00 | 0.00 | 0.00 | 76 | 1008.2 |
| 20260504012221 | 41 | 67 | 1.0 | 2.0 | 0.00 | 0.00 | 0.00 | 74 | 1008.3 |
| 20260504011929 | 42 | 67 | 1.0 | 2.0 | 0.00 | 0.00 | 0.00 | 74 | 1008.2 |
| 20260504011140 | 42 | 67 | 1.0 | 2.0 | 0.00 | 0.00 | 0.00 | 74 | 1008.1 |
| 20260504010641 | 42 | 67 | 0.0 | 1.0 | 0.00 | 0.00 | 0.00 | 74 | 1008.1 |
| 20260504010118 | 42 | 67 | 0.0 | 1.0 | 0.00 | 0.00 | 0.00 | 73 | 1008.0 |
| 20260504005551 | 43 | 67 | 1.0 | 2.0 | 0.00 | 0.00 | 0.00 | 72 | 1008.0 |
| 20260504005026 | 43 | 67 | 0.0 | 2.0 | 0.00 | 0.00 | 0.00 | 70 | 1007.9 |
| 20260504004758 | 44 | 67 | 0.0 | 0.0 | 0.00 | 0.00 | 0.00 | 64 | 1007.9 |
| 20260504004024 | 44 | 67 | 0.0 | 0.0 | 0.00 | 0.00 | 0.00 | 62 | 1007.8 |
| 20260504003501 | 45 | 67 | 0.0 | 2.0 | 0.00 | 0.00 | 0.00 | 65 | 1007.8 |
| 20260504002956 | 46 | 67 | 0.0 | 2.0 | 0.00 | 0.00 | 0.00 | 62 | 1007.8 |
| 20260504002453 | 46 | 67 | 0.0 | 2.0 | 0.00 | 0.00 | 0.00 | 58 | 1007.8 |
| 20260504002159 | 47 | 67 | 0.0 | 1.0 | 0.00 | 0.00 | 0.00 | 57 | 1007.7 |
| 20260504001402 | 48 | 67 | 0.0 | 2.0 | 0.00 | 0.00 | 0.00 | 55 | 1007.6 |
| 20260504001107 | 49 | 67 | 0.0 | 2.0 | 0.00 | 0.00 | 0.00 | 52 | 1007.6 |
| 20260504000307 | 49 | 65 | 0.0 | 3.0 | 0.00 | 0.00 | 0.00 | 48 | 1007.4 |
| 20260503235805 | 49 | 65 | 1.0 | 8.0 | 0.00 | 0.00 | 0.00 | 50 | 1007.5 |
| 20260503235304 | 49 | 38 | 1.0 | 8.0 | 0.00 | 0.00 | 0.00 | 50 | 1007.4 |
| 20260503234801 | 49 | 311 | 1.0 | 6.0 | 0.00 | 0.00 | 0.00 | 48 | 1007.4 |
| 20260503234248 | 49 | 355 | 2.0 | 6.0 | 0.00 | 0.00 | 0.00 | 47 | 1007.2 |